Terug naar catalogus

THORAD AGENA D DEB

ActiefLEO
NORAD 4205·DEBRIS·🇺🇸 United States

Gelanceerd Sep 30, 1969 vanaf Vandenberg Space Force Base

Loading…

Volgende Passages (komende 24 uur)

TLE

VersSource: Space-Track

Epoch: Sep 13, 2026, 11:47 UTC

1 04205U 69082BU  26256.49103164  .00000290  00000-0  13354-3 0  9995
2 04205  70.0594 283.9221 0062752  38.2028 322.3518 14.29314380114128

Volg THORAD AGENA D DEB in realtime met AllMySat

Download on the App Store